Weather History for KCDD - August, 2014

Change the Weather History Date:

Wednesday, August 13, 2014

  Actual Average Record
Temperature  
Mean Temperature 56 °F -  
Max Temperature 69 °F 73 °F 86 °F (1998)
Min Temperature 44 °F 52 °F 35 °F (1997)
Degree Days  
Heating Degree Days 8    
Growing Degree Days 6 (Base 50)    
Moisture  
Dew Point 49 °F    
Average Humidity 78    
Maximum Humidity 100    
Minimum Humidity 40    
Precipitation  
Precipitation 0.00 in - - ()
Sea Level Pressure  
Sea Level Pressure 30.12 in    
Wind  
Wind Speed 2 mph (North)    
Max Wind Speed 8 mph    
Max Gust Speed -    
Visibility 7 miles    
Events Fog    
Averages and records for this station are not official NWS values.
T = Trace of Precipitation, MM = Missing Value Source: NWS Daily Summary

Daily Weather History Graph

Daily Weather History Graph

Search for Another Location

Airport or City:

Trip Planner

Search our weather history database for the weather conditions in past years. The results will help you decide how hot, cold, wet, or windy it might be!

Date:

Astronomy

Aug. 13, 2014 Rise Set
Actual Time 6:01 AM CDT 8:27 PM CDT
Civil Twilight 5:26 AM CDT 9:01 PM CDT
Nautical Twilight 4:42 AM CDT 9:45 PM CDT
Astronomical Twilight 3:52 AM CDT 10:35 PM CDT
Moon 9:50 PM CDT (8/13) 9:50 AM CDT (8/13)
Length of Visible Light 15h 35m
Length of Day
14h 25m
Waning Gibbous, 87% of the Moon is Illuminated
Aug 13
Waning Gibbous
Aug 17
Last Quarter
Aug 25
New
Sep 2
First Quarter
Sep 8
Full

Hourly Weather History & Observations

Time (CDT) Temp. Dew Point Humidity Pressure Visibility Wind Dir Wind Speed Gust Speed Precip Events Conditions
12:12 AM 51.8 °F 51.8 °F 100% 30.03 in 2.5 mi Calm Calm - N/A   Scattered Clouds
12:35 AM 51.8 °F 51.8 °F 100% 30.04 in 0.5 mi Calm Calm - N/A Fog Fog
12:53 AM 51.8 °F 51.8 °F 100% 30.04 in 1.0 mi Calm Calm - N/A   Mostly Cloudy
1:12 AM 51.8 °F 51.8 °F 100% 30.04 in 2.5 mi Calm Calm - N/A   Clear
1:33 AM 50.0 °F 48.2 °F 94% 30.04 in 2.5 mi Calm Calm - N/A   Clear
1:52 AM 48.2 °F 48.2 °F 100% 30.05 in 2.5 mi Calm Calm - N/A   Clear
2:12 AM 48.2 °F 48.2 °F 100% 30.05 in 0.8 mi Calm Calm - N/A   Mostly Cloudy
2:32 AM 48.2 °F 48.2 °F 100% 30.05 in 2.5 mi Calm Calm - N/A   Scattered Clouds
2:52 AM 48.2 °F 48.2 °F 100% 30.06 in 1.0 mi Calm Calm - N/A   Mist
3:12 AM 46.4 °F 46.4 °F 100% 30.07 in 2.5 mi Calm Calm - N/A   Clear
3:32 AM 46.4 °F 46.4 °F 100% 30.07 in 2.5 mi Calm Calm - N/A   Clear
3:52 AM 46.4 °F 46.4 °F 100% 30.07 in 2.5 mi Calm Calm - N/A   Clear
4:12 AM 46.4 °F 46.4 °F 100% 30.08 in 2.5 mi Calm Calm - N/A   Clear
4:32 AM 46.4 °F 44.6 °F 93% 30.08 in 2.5 mi Calm Calm - N/A   Clear
4:52 AM 44.6 °F 44.6 °F 100% 30.08 in 0.8 mi Calm Calm - N/A   Mostly Cloudy
5:12 AM 44.6 °F 44.6 °F 100% 30.09 in 0.5 mi Calm Calm - N/A Fog Fog
5:33 AM 44.6 °F 44.6 °F 100% 30.10 in 1.0 mi Calm Calm - N/A   Mostly Cloudy
5:53 AM 44.6 °F 44.6 °F 100% 30.10 in 2.0 mi Calm Calm - N/A   Mist
6:12 AM 44.6 °F 42.8 °F 93% 30.11 in 2.5 mi Calm Calm - N/A   Clear
6:32 AM 44.6 °F 44.6 °F 100% 30.11 in 0.8 mi Calm Calm - N/A   Mostly Cloudy
8:32 AM 55.4 °F 55.4 °F 100% 30.14 in 10.0 mi NE 3.5 mph - N/A   Scattered Clouds
9:13 AM 57.2 °F 55.4 °F 94% 30.14 in 10.0 mi North 3.5 mph - N/A   Clear
9:32 AM 57.2 °F 55.4 °F 94% 30.14 in 10.0 mi NE 3.5 mph - N/A   Clear
10:13 AM 60.8 °F 55.4 °F 82% 30.15 in 10.0 mi NNW 5.8 mph - N/A   Scattered Clouds
10:32 AM 60.8 °F 57.2 °F 88% 30.16 in 10.0 mi NNE 3.5 mph - N/A   Scattered Clouds
10:52 AM 60.8 °F 55.4 °F 82% 30.16 in 10.0 mi North 4.6 mph - N/A   Mostly Cloudy
11:12 AM 62.6 °F 55.4 °F 77% 30.16 in 10.0 mi North 3.5 mph - N/A   Overcast
11:32 AM 62.6 °F 55.4 °F 77% 30.16 in 10.0 mi North 6.9 mph - N/A   Overcast
11:52 AM 64.4 °F 55.4 °F 73% 30.15 in 10.0 mi NNW 4.6 mph - N/A   Mostly Cloudy
12:13 PM 64.4 °F 55.4 °F 73% 30.15 in 10.0 mi NNW 6.9 mph - N/A   Mostly Cloudy
12:32 PM 64.4 °F 53.6 °F 68% 30.15 in 10.0 mi NW 5.8 mph - N/A   Mostly Cloudy
12:52 PM 66.2 °F 53.6 °F 64% 30.15 in 10.0 mi NNW 6.9 mph - N/A   Scattered Clouds
1:13 PM 66.2 °F 53.6 °F 64% 30.15 in 10.0 mi NW 6.9 mph - N/A   Scattered Clouds
1:32 PM 64.4 °F 51.8 °F 64% 30.15 in 10.0 mi North 6.9 mph - N/A   Scattered Clouds
1:52 PM 66.2 °F 51.8 °F 60% 30.14 in 10.0 mi NNW 4.6 mph - N/A   Scattered Clouds
2:12 PM 66.2 °F 51.8 °F 60% 30.14 in 10.0 mi NNW 5.8 mph - N/A   Clear
2:32 PM 66.2 °F 50.0 °F 56% 30.14 in 10.0 mi North 6.9 mph - N/A   Clear
2:52 PM 68.0 °F 50.0 °F 52% 30.14 in 10.0 mi NW 8.1 mph - N/A   Clear
3:12 PM 68.0 °F 51.8 °F 56% 30.13 in 10.0 mi North 5.8 mph - N/A   Clear
3:32 PM 68.0 °F 48.2 °F 49% 30.13 in 10.0 mi NNE 5.8 mph - N/A   Clear
3:52 PM 68.0 °F 46.4 °F 46% 30.13 in 10.0 mi North 5.8 mph - N/A   Clear
4:12 PM 68.0 °F 46.4 °F 46% 30.13 in 10.0 mi NNE 4.6 mph - N/A   Clear
4:32 PM 69.8 °F 46.4 °F 43% 30.13 in 10.0 mi NNE 4.6 mph - N/A   Clear
4:53 PM 68.0 °F 42.8 °F 40% 30.13 in 10.0 mi North 5.8 mph - N/A   Clear
5:12 PM 68.0 °F 42.8 °F 40% 30.13 in 10.0 mi NNW 5.8 mph - N/A   Clear
5:32 PM 68.0 °F 42.8 °F 40% 30.13 in 10.0 mi NNW 4.6 mph - N/A   Clear
5:52 PM 68.0 °F 42.8 °F 40% 30.13 in 10.0 mi North 5.8 mph - N/A   Clear
6:12 PM 68.0 °F 44.6 °F 43% 30.13 in 10.0 mi North 5.8 mph - N/A   Clear
6:32 PM 68.0 °F 44.6 °F 43% 30.13 in 10.0 mi NNW 4.6 mph - N/A   Clear
6:52 PM 66.2 °F 44.6 °F 46% 30.13 in 10.0 mi Calm Calm - N/A   Clear
7:12 PM 64.4 °F 44.6 °F 49% 30.14 in 10.0 mi Calm Calm - N/A   Clear
7:52 PM 57.2 °F 55.4 °F 94% 30.13 in 10.0 mi Calm Calm - N/A   Clear
8:32 PM 51.8 °F 51.8 °F 100% 30.14 in 10.0 mi Calm Calm - N/A   Clear
8:52 PM 51.8 °F 50.0 °F 94% 30.14 in 10.0 mi Calm Calm - N/A   Clear
11:12 PM 44.6 °F 44.6 °F 100% 30.17 in 10.0 mi Calm Calm - N/A   Clear
11:33 PM 44.6 °F 42.8 °F 93% 30.17 in 10.0 mi Calm Calm - N/A   Clear
11:52 PM 44.6 °F 42.8 °F 93% 30.17 in 10.0 mi Calm Calm - N/A   Clear